| time (UTC) | temp C | wind direction | speed KPH | gust KPH | rain 1hr cm | rain 24hr cm | rain mn cm | humidity % | barometer mb |
| 20260504090107 | 13 | 40 | 1.6 | 4.8 | 0.00 | 0.00 | 0.00 | 70 | 1013.1 |
| 20260504081021 | 13 | 339 | 3.2 | 6.4 | 0.00 | 0.00 | 0.00 | 70 | 1013.2 |
| 20260504050021 | 13 | 326 | 3.2 | 8.0 | 0.00 | 0.00 | 0.00 | 67 | 1014.4 |
| 20260504045025 | 13 | 85 | 1.6 | 3.2 | 0.00 | 0.00 | 0.00 | 67 | 1014.4 |
| 20260504044025 | 13 | 282 | 1.6 | 4.8 | 0.00 | 0.00 | 0.00 | 67 | 1014.5 |
| 20260504043025 | 13 | 79 | 1.6 | 3.2 | 0.00 | 0.00 | 0.00 | 67 | 1014.5 |
| 20260504042025 | 13 | 312 | 1.6 | 4.8 | 0.00 | 0.00 | 0.00 | 66 | 1014.7 |
| 20260504041025 | 13 | 88 | 1.6 | 1.6 | 0.00 | 0.00 | 0.00 | 65 | 1014.7 |
| 20260504040026 | 13 | 244 | 1.6 | 4.8 | 0.00 | 0.00 | 0.00 | 64 | 1014.9 |
| 20260504035019 | 13 | 53 | 1.6 | 4.8 | 0.00 | 0.00 | 0.00 | 64 | 1015.0 |
| 20260504034039 | 13 | 331 | 1.6 | 3.2 | 0.00 | 0.00 | 0.00 | 63 | 1015.1 |
| 20260504033019 | 13 | 315 | 1.6 | 4.8 | 0.00 | 0.00 | 0.00 | 63 | 1015.0 |
| 20260504032016 | 14 | 63 | 1.6 | 3.2 | 0.00 | 0.00 | 0.00 | 62 | 1014.9 |
| 20260504031016 | 14 | 291 | 1.6 | 3.2 | 0.00 | 0.00 | 0.00 | 61 | 1015.1 |
| 20260504030019 | 14 | 24 | 1.6 | 3.2 | 0.00 | 0.00 | 0.00 | 61 | 1015.0 |
| 20260504025020 | 14 | 133 | 1.6 | 4.8 | 0.00 | 0.00 | 0.00 | 61 | 1014.9 |
| 20260504024017 | 14 | 69 | 1.6 | 4.8 | 0.00 | 0.00 | 0.00 | 61 | 1014.8 |
| 20260504023017 | 13 | 56 | 1.6 | 4.8 | 0.00 | 0.00 | 0.00 | 63 | 1014.8 |
| 20260504022017 | 13 | 77 | 0.0 | 1.6 | 0.00 | 0.00 | 0.00 | 65 | 1014.7 |
| 20260504021017 | 13 | 38 | 1.6 | 3.2 | 0.00 | 0.00 | 0.00 | 66 | 1014.7 |
| 20260504020017 | 13 | 343 | 0.0 | 3.2 | 0.00 | 0.00 | 0.00 | 65 | 1014.6 |
| 20260504015020 | 13 | 305 | 1.6 | 3.2 | 0.00 | 0.00 | 0.00 | 64 | 1014.6 |
| 20260504014018 | 13 | 293 | 1.6 | 3.2 | 0.00 | 0.00 | 0.00 | 65 | 1014.5 |
| 20260504013038 | 13 | 223 | 0.0 | 4.8 | 0.00 | 0.00 | 0.00 | 67 | 1014.4 |
| 20260504012018 | 14 | 336 | 0.0 | 1.6 | 0.00 | 0.00 | 0.00 | 66 | 1014.5 |
| 20260504011038 | 15 | 241 | 0.0 | 1.6 | 0.00 | 0.00 | 0.00 | 66 | 1014.5 |
| 20260504010019 | 15 | 263 | 1.6 | 3.2 | 0.00 | 0.00 | 0.00 | 64 | 1014.7 |
| 20260504005039 | 16 | 103 | 0.0 | 1.6 | 0.00 | 0.00 | 0.00 | 60 | 1014.8 |
| 20260504004018 | 17 | 336 | 0.0 | 1.6 | 0.00 | 0.00 | 0.00 | 55 | 1014.7 |
| 20260504003019 | 17 | 48 | 0.0 | 1.6 | 0.00 | 0.00 | 0.00 | 53 | 1014.6 |
| 20260504002019 | 17 | 280 | 1.6 | 3.2 | 0.00 | 0.00 | 0.00 | 50 | 1014.7 |
| 20260504001019 | 18 | 286 | 1.6 | 4.8 | 0.00 | 0.00 | 0.00 | 49 | 1014.7 |
| 20260504000019 | 19 | 295 | 1.6 | 4.8 | 0.00 | 0.00 | 0.00 | 47 | 1014.8 |
| 20260503235017 | 20 | 289 | 1.6 | 8.0 | 0.00 | 0.00 | 0.00 | 45 | 1014.9 |
| 20260503234017 | 20 | 290 | 1.6 | 6.4 | 0.00 | 0.00 | 0.00 | 44 | 1015.1 |
| 20260503233037 | 20 | 296 | 1.6 | 4.8 | 0.00 | 0.00 | 0.00 | 44 | 1015.2 |
| 20260503232020 | 21 | 272 | 3.2 | 6.4 | 0.00 | 0.00 | 0.00 | 43 | 1015.2 |
| 20260503231037 | 21 | 306 | 1.6 | 6.4 | 0.00 | 0.00 | 0.00 | 43 | 1015.3 |
| 20260503230017 | 21 | 286 | 3.2 | 6.4 | 0.00 | 0.00 | 0.00 | 44 | 1015.3 |
| 20260503225017 | 21 | 303 | 3.2 | 8.0 | 0.00 | 0.00 | 0.00 | 43 | 1015.3 |
| 20260503224018 | 21 | 287 | 3.2 | 8.0 | 0.00 | 0.00 | 0.00 | 43 | 1015.3 |
| 20260503223018 | 21 | 301 | 3.2 | 6.4 | 0.00 | 0.00 | 0.00 | 42 | 1015.5 |
| 20260503222018 | 21 | 298 | 3.2 | 11.3 | 0.00 | 0.00 | 0.00 | 42 | 1015.6 |
| 20260503221018 | 21 | 298 | 3.2 | 8.0 | 0.00 | 0.00 | 0.00 | 44 | 1015.8 |
| 20260503220038 | 21 | 237 | 3.2 | 9.7 | 0.00 | 0.00 | 0.00 | 43 | 1015.9 |
| 20260503215019 | 21 | 292 | 4.8 | 8.0 | 0.00 | 0.00 | 0.00 | 45 | 1016.0 |
| 20260503214018 | 21 | 300 | 4.8 | 9.7 | 0.00 | 0.00 | 0.00 | 45 | 1016.3 |
| 20260503213019 | 21 | 295 | 4.8 | 11.3 | 0.00 | 0.03 | 0.00 | 45 | 1016.3 |
| 20260503212016 | 20 | 322 | 3.2 | 8.0 | 0.00 | 0.03 | 0.00 | 46 | 1016.5 |
| 20260503211016 | 21 | 295 | 4.8 | 11.3 | 0.00 | 0.03 | 0.00 | 44 | 1016.7 |
| 20260503210039 | 20 | 270 | 3.2 | 9.7 | 0.00 | 0.03 | 0.00 | 46 | 1016.7 |
| 20260503205019 | 21 | 273 | 3.2 | 8.0 | 0.00 | 0.03 | 0.00 | 45 | 1016.9 |
| 20260503204040 | 20 | 316 | 3.2 | 9.7 | 0.00 | 0.03 | 0.00 | 46 | 1017.0 |
| 20260503203017 | 20 | 286 | 4.8 | 12.9 | 0.00 | 0.03 | 0.00 | 46 | 1017.2 |
| 20260503202017 | 20 | 279 | 3.2 | 8.0 | 0.00 | 0.03 | 0.00 | 45 | 1017.4 |
| 20260503201017 | 20 | 284 | 3.2 | 9.7 | 0.00 | 0.05 | 0.00 | 45 | 1017.7 |
| 20260503200020 | 20 | 283 | 3.2 | 8.0 | 0.00 | 0.05 | 0.00 | 44 | 1017.9 |
| 20260503195037 | 20 | 319 | 3.2 | 11.3 | 0.00 | 0.05 | 0.00 | 44 | 1018.1 |
| 20260503194018 | 19 | 296 | 3.2 | 8.0 | 0.00 | 0.05 | 0.00 | 46 | 1018.2 |
| 20260503193018 | 19 | 269 | 4.8 | 11.3 | 0.00 | 0.05 | 0.00 | 46 | 1018.4 |
| 20260503192018 | 18 | 344 | 3.2 | 6.4 | 0.00 | 0.05 | 0.00 | 47 | 1018.4 |
| 20260503191018 | 18 | 278 | 4.8 | 11.3 | 0.00 | 0.05 | 0.00 | 49 | 1018.6 |
| 20260503190018 | 18 | 274 | 3.2 | 8.0 | 0.00 | 0.05 | 0.00 | 48 | 1018.7 |
| 20260503185019 | 18 | 75 | 3.2 | 9.7 | 0.00 | 0.05 | 0.00 | 48 | 1018.9 |
| 20260503184018 | 17 | 266 | 3.2 | 8.0 | 0.00 | 0.05 | 0.00 | 48 | 1019.1 |
| 20260503183019 | 17 | 278 | 4.8 | 9.7 | 0.00 | 0.05 | 0.00 | 47 | 1019.2 |
| 20260503182019 | 17 | 272 | 3.2 | 6.4 | 0.00 | 0.05 | 0.00 | 48 | 1019.3 |
| 20260503181019 | 17 | 281 | 4.8 | 9.7 | 0.00 | 0.05 | 0.00 | 50 | 1019.4 |
| 20260503180019 | 17 | 286 | 3.2 | 12.9 | 0.00 | 0.05 | 0.00 | 51 | 1019.5 |
| 20260503175016 | 17 | 290 | 3.2 | 6.4 | 0.00 | 0.05 | 0.00 | 50 | 1019.6 |
| 20260503174016 | 16 | 342 | 1.6 | 4.8 | 0.00 | 0.05 | 0.00 | 49 | 1019.6 |
| 20260503173059 | 17 | 226 | 3.2 | 6.4 | 0.00 | 0.05 | 0.00 | 47 | 1019.8 |
| 20260503172020 | 16 | 297 | 3.2 | 12.9 | 0.00 | 0.05 | 0.00 | 49 | 1020.0 |
| 20260503171017 | 16 | 75 | 3.2 | 8.0 | 0.00 | 0.05 | 0.00 | 51 | 1020.1 |
| 20260503131027 | 7 | 95 | 1.6 | 3.2 | 0.00 | 0.05 | 0.00 | 99 | 1021.0 |